Location: Dompnac
(44.5644°N, 4.1026°E)
Time: 11:13:38
(UTC+00:00)

Cosmos 1464 Rocket - Pass Details

Date: 19 September 2020
Orbit: 953 x 1000 km, 82.9° (Epoch: 29 October)

Event Time Altitude Azimuth Distance (km) Brightness Sun altitude
Rises 18:22:21 0° 162° (SSE) 3,615 6.7 -7.3°
Reaches altitude 10° 18:24:58 10° 154° (SSE) 2,674 6.0 -7.7°
Maximum altitude 18:30:33 39° 88° (E) 1,409 4.4 -8.7°
Drops below altitude 10° 18:36:11 10° 22° (NNE) 2,706 6.2 -9.7°
Sets 18:38:51 0° 15° (NNE) 3,662 7.0 -10.2°
